Date,TemperatureHighF,TemperatureAvgF,TemperatureLowF,DewpointHighF,DewpointAvgF,DewpointLowF,HumidityHigh,HumidityAvg,HumidityLow,PressureMaxIn,PressureMinIn,WindSpeedMaxMPH,WindSpeedAvgMPH,GustSpeedMaxMPH,PrecipitationSumIn
2013-5-1,68,55,40,-100,-100,-100,0,0,100,0.00,40.00,0,-999,0,0.00
2013-5-2,46,39,35,-100,-100,-100,0,0,100,0.00,40.00,0,-999,0,0.00
2013-5-3,42,37,34,-100,-100,-100,0,0,100,0.00,40.00,0,-999,0,0.00
2013-5-4,63,46,39,-100,-100,-100,0,0,100,0.00,40.00,0,-999,0,0.00
2013-5-5,65,49,39,-100,-100,-100,0,0,100,0.00,40.00,0,-999,0,0.00
2013-5-6,60,50,39,-100,-100,-100,0,0,100,0.00,40.00,0,-999,0,0.00
2013-5-7,62,50,39,-100,-100,-100,0,0,100,0.00,40.00,0,-999,0,0.00
2013-5-8,78,62,42,-100,-100,-100,0,0,100,0.00,40.00,0,-999,0,0.00
2013-5-9,59,47,38,-100,-100,-100,0,0,100,0.00,40.00,0,-999,0,0.00
2013-5-10,50,41,36,-100,-100,-100,0,0,100,0.00,40.00,0,-999,0,0.00
2013-5-11,45,40,34,-100,-100,-100,0,0,100,0.00,40.00,0,-999,0,0.00
2013-5-12,43,38,35,-100,-100,-100,0,0,100,0.00,40.00,0,-999,0,0.00
2013-5-13,51,42,35,-100,-100,-100,0,0,100,0.00,40.00,0,-999,0,0.00
2013-5-14,59,49,41,-100,-100,-100,0,0,100,0.00,40.00,0,-999,0,0.00
2013-5-15,74,60,42,-100,-100,-100,0,0,100,0.00,40.00,0,-999,0,0.00
2013-5-16,65,57,47,-100,-100,-100,0,0,100,0.00,40.00,0,-999,0,0.00
2013-5-17,59,51,44,-100,-100,-100,0,0,100,0.00,40.00,0,-999,0,0.00
2013-5-18,62,55,51,-100,-100,-100,0,0,100,0.00,40.00,0,-999,0,0.00
2013-5-19,77,65,53,-100,-100,-100,0,0,100,0.00,40.00,0,-999,0,0.00
2013-5-20,76,66,57,-100,-100,-100,0,0,100,0.00,40.00,0,-999,0,0.00
2013-5-21,64,56,49,-100,-100,-100,0,0,100,0.00,40.00,0,-999,0,0.00
2013-5-22,52,50,47,-100,-100,-100,0,0,100,0.00,40.00,0,-999,0,0.00
2013-5-23,47,44,40,-100,-100,-100,0,0,100,0.00,40.00,0,-999,0,0.00
2013-5-24,59,47,40,-100,-100,-100,0,0,100,0.00,40.00,0,-999,0,0.00
2013-5-25,63,51,39,-100,-100,-100,0,0,100,0.00,40.00,0,-999,0,0.00
2013-5-26,64,59,50,-100,-100,-100,0,0,100,0.00,40.00,0,-999,0,0.00
2013-5-27,64,52,44,-100,-100,-100,0,0,100,0.00,40.00,0,-999,0,0.00
2013-5-28,54,53,53,-100,-100,-100,0,0,100,0.00,40.00,0,-999,0,0.00
2013-5-29,63,55,47,-100,-100,-100,0,0,100,0.00,40.00,0,-999,0,0.00
2013-5-30,73,64,56,-100,-100,-100,0,0,100,0.00,40.00,0,-999,0,0.00
2013-5-31,70,60,53,-100,-100,-100,0,0,100,0.00,40.00,0,-999,0,0.00